loading
DOY 171 | 2024-06-19T22:51:39Z

THOR ABLESTAR DEB, 325

Orbit data source: Space-Track

THOR ABLESTAR DEB, 325 is space debris in LEO originally from a launch on Thu, 29 Jun 1961 UTC launched from the Air Force Eastern Test Range (AFETR). Debris objects in space refer to the collection of defunct objects orbiting the Earth. Examples of debris include non-operational satellites, rocket bodies, and fragments generated from explosions, collisions, or faulty payload assembly.

Loading next visibility...
Loading greatness...
THOR ABLESTAR DEB details
NORAD ID325
COSPAR ID
1961-015DB
Orbit
LEO
Last TLE update13 hours ago
Origin
Flag of USUSAF SSD (US)
ManufacturerUnknown
BusUnknown
MotorUnknown
MassWet unknown, Dry mass unknown
Launch date (UTC)
1961-06-29 (63 years ago)
Launch vehicleUnknown
Launch site
Air Force Eastern Test Range (AFETR)
Object type
Payload
Rocket body
Debris
Radar Cross SectionSmall (<0.1 m²)
Predictive object data (real-time)
Latitude-61.34482°
Longitude-19.69722°
Altitude803.551 km
Speed7.473 km/s
Apparent Right ascension23h 37m 40s
Apparent Declination-56° 18' 01"
Sunlit
Object is in daylight
Predictive observer data (real-time)
Local Sidereal Time09:45:47
Azimuth218.8° SW
Elevation-65.461°
Doppler factor1
Orbital elements
Apogee867.938 km
Perigee775.253 km
Semi-major axis7,199.733 km
Eccentricity0.0064367
Inclination66.9131°
RAAN166.6483°
Arg. of periapsis228.8394°
True anomaly131.26995°
Mean anomaly130.7138°
Mean motion3.55278 °/min
BSTAR0.00037347
Period101.33 mins
Definitive object data (Epoch: 2024-06-19T09:50:55.324Z)
Latitude-0.00001°
Longitude110.80063°
Altitude855.762 km
Speed7.409 km/s
True Right ascension11h 06m 35s
True Declination0° 00' 00"
Sunlit
Object was in daylight at TLE epoch
TLE from 13 hours ago
0 THOR ABLESTAR DEB
1 00325U 61015DB  24171.41036255  .00000740  00000-0  37347-3 0  9992
2 00325  66.9131 166.6483 0064367 228.8394 130.7138 14.20625380229674
Epoch: 2024-06-19T09:50Z
No data available

THOR ABLESTAR DEB Visibility forecast

Observer location: 39.9160978°, -105.1181434, 0m alt.

THOR ABLESTAR DEB is not visible in the next 10 days
Span
Click to sort rows by Start time (UTC) header in descending order
Start Az.
Max El. time (UTC)
Max El. Az.
Max El.
End time (UTC)
End Az.